Terug naar catalogus

STARLINK-11260

ActiefCommunicatieVLEO
NORAD 60997·PAYLOAD·🇺🇸 United States

Gelanceerd Sep 5, 2024 vanaf Cape Canaveral Space Force Station

Loading…

Volgende Passages (komende 24 uur)

TLE

VersSource: CelesTrak SupGP

Epoch: Sep 15, 2026, 01:58 UTC

1 60997C 24158H   26258.08243056 -.00067531  00000+0 -55601-3 0  2583
2 60997  53.1567  45.4639 0001105  83.9118 105.1455 15.69754654    12

Volg STARLINK-11260 in realtime met AllMySat

Download on the App Store